sat.trackr.live / text

‹ back to catalog

AMOS-17

NORAD 44479 · 2019-050A

PAYLOAD ACTIVE UNKNOWN

§ Identity

Operator
Country
ISRA
Launch date
2019-08-06
Launch site
AFETR
Launch vehicle
Mass (kg)
RCS (m²)

Purposes: comms

External: N2YO · Heavens-Above · Gunter

§ Orbital elements

Epoch: 2026-09-19T13:37:48.629280Z

Period
1,436.09 min
Inclination
0.0073°
Eccentricity
0.0002351
Mean motion
1.00272218 rev/d
Perigee alt
35,776.6 km
Apogee alt
35,796.4 km
Semi-major
42,164.6 km
B*
0.0000e+0
RAAN
289.1540°
Arg perigee
247.4301°
Mean anomaly
43.3555°
Rev number
2,613

§ Raw data

AMOS-171 44479U 19050A   26262.56792395  .00000105  00000+0  00000+0 0  99912 44479   0.0073 289.1540 0002351 247.4301  43.3555  1.00272218 26131

JSON: /api/v1/satellites/44479 · /tle

For live sub-satellite position, see the globe view (requires WebGL).

§ Visibility from observer

Set your observer location to see the next 7 days of passes ≥ 10°. The values pass through the URL so the page stays shareable.

No JS? Fill the form by hand. The geolocation button needs JavaScript.